Year,Month,Day,Hour,Minute,Value (Times are PST for windspeed in km/hr)
2007,08,15,00,00,0.00
2007,08,15,00,01,0.00
2007,08,15,00,02,0.00
2007,08,15,00,03,0.00
2007,08,15,00,04,0.00
2007,08,15,00,05,0.00
2007,08,15,00,06,0.00
2007,08,15,00,07,0.00
2007,08,15,00,08,0.00
2007,08,15,00,09,0.10
2007,08,15,00,10,0.10
2007,08,15,00,11,0.00
2007,08,15,00,12,0.00
2007,08,15,00,13,0.00
2007,08,15,00,14,0.00
2007,08,15,00,15,0.00
2007,08,15,00,16,0.00
2007,08,15,00,17,0.00
2007,08,15,00,18,0.00
2007,08,15,00,19,0.00
2007,08,15,00,20,0.00
2007,08,15,00,21,0.00
2007,08,15,00,22,0.00
2007,08,15,00,23,0.00
2007,08,15,00,24,0.00
2007,08,15,00,25,0.00
2007,08,15,00,26,0.00
2007,08,15,00,27,0.00
2007,08,15,00,28,0.00
2007,08,15,00,29,0.00
2007,08,15,00,30,0.00
2007,08,15,00,31,0.00
2007,08,15,00,32,0.00
2007,08,15,00,33,0.00
2007,08,15,00,34,0.00
2007,08,15,00,35,0.00
2007,08,15,00,36,0.00
2007,08,15,00,37,0.00
2007,08,15,00,38,0.00
2007,08,15,00,39,0.00
2007,08,15,00,40,0.00
2007,08,15,00,41,0.00
2007,08,15,00,42,0.00
2007,08,15,00,43,0.00
2007,08,15,00,44,0.30
2007,08,15,00,45,0.10
2007,08,15,00,46,0.00
2007,08,15,00,47,0.00
2007,08,15,00,48,0.00
2007,08,15,00,49,0.00
2007,08,15,00,50,0.00
2007,08,15,00,51,0.00
2007,08,15,00,52,0.00
2007,08,15,00,53,0.00
2007,08,15,00,54,0.00
2007,08,15,00,55,0.00
2007,08,15,00,56,0.00
2007,08,15,00,57,0.00
2007,08,15,00,58,0.10
2007,08,15,00,59,0.00
2007,08,15,01,00,0.00
2007,08,15,01,01,0.00
2007,08,15,01,02,0.00
2007,08,15,01,03,0.00
2007,08,15,01,04,0.00
2007,08,15,01,05,0.10
2007,08,15,01,06,0.00
2007,08,15,01,07,0.00
2007,08,15,01,08,0.00
2007,08,15,01,09,0.00
2007,08,15,01,10,0.00
2007,08,15,01,11,0.00
2007,08,15,01,12,0.00
2007,08,15,01,13,0.00
2007,08,15,01,14,0.00
2007,08,15,01,15,0.00
2007,08,15,01,16,0.00
2007,08,15,01,17,0.00
2007,08,15,01,18,0.00
2007,08,15,01,19,0.00
2007,08,15,01,20,0.00
2007,08,15,01,21,0.00
2007,08,15,01,22,0.00
2007,08,15,01,23,0.00
2007,08,15,01,24,0.00
2007,08,15,01,25,0.00
2007,08,15,01,26,0.00
2007,08,15,01,27,0.00
2007,08,15,01,28,0.00
2007,08,15,01,29,0.00
2007,08,15,01,30,0.00
2007,08,15,01,31,0.00
2007,08,15,01,32,0.00
2007,08,15,01,33,0.00
2007,08,15,01,34,0.00
2007,08,15,01,35,0.00
2007,08,15,01,36,0.00
2007,08,15,01,37,0.00
2007,08,15,01,38,0.00
2007,08,15,01,39,0.00
2007,08,15,01,40,0.00
2007,08,15,01,41,0.00
2007,08,15,01,42,0.00
2007,08,15,01,43,0.00
2007,08,15,01,44,0.00
2007,08,15,01,45,0.00
2007,08,15,01,46,0.00
2007,08,15,01,47,0.00
2007,08,15,01,48,0.00
2007,08,15,01,49,0.00
2007,08,15,01,50,0.00
2007,08,15,01,51,0.00
2007,08,15,01,52,0.00
2007,08,15,01,53,0.00
2007,08,15,01,54,0.00
2007,08,15,01,55,0.00
2007,08,15,01,56,0.00
2007,08,15,01,57,0.00
2007,08,15,01,58,0.00
2007,08,15,01,59,0.00
2007,08,15,02,00,0.00
2007,08,15,02,01,0.00
2007,08,15,02,02,0.00
2007,08,15,02,03,0.00
2007,08,15,02,04,0.00
2007,08,15,02,05,0.00
2007,08,15,02,06,0.00
2007,08,15,02,07,0.00
2007,08,15,02,08,0.00
2007,08,15,02,09,0.00
2007,08,15,02,10,0.00
2007,08,15,02,11,0.00
2007,08,15,02,12,0.00
2007,08,15,02,13,0.00
2007,08,15,02,14,0.00
2007,08,15,02,15,0.00
2007,08,15,02,16,0.00
2007,08,15,02,17,0.00
2007,08,15,02,18,0.00
2007,08,15,02,19,0.00
2007,08,15,02,20,0.00
2007,08,15,02,21,0.00
2007,08,15,02,22,0.00
2007,08,15,02,23,0.00
2007,08,15,02,24,0.00
2007,08,15,02,25,0.00
2007,08,15,02,26,0.00
2007,08,15,02,27,0.00
2007,08,15,02,28,0.00
2007,08,15,02,29,0.00
2007,08,15,02,30,0.00
2007,08,15,02,31,0.00
2007,08,15,02,32,0.00
2007,08,15,02,33,0.00
2007,08,15,02,34,0.00
2007,08,15,02,35,0.00
2007,08,15,02,36,0.00
2007,08,15,02,37,0.00
2007,08,15,02,38,0.00
2007,08,15,02,39,0.00
2007,08,15,02,40,0.00
2007,08,15,02,41,0.00
2007,08,15,02,42,0.00
2007,08,15,02,43,0.00
2007,08,15,02,44,0.00
2007,08,15,02,45,0.00
2007,08,15,02,46,0.00
2007,08,15,02,47,0.00
2007,08,15,02,48,0.00
2007,08,15,02,49,0.00
2007,08,15,02,50,0.00
2007,08,15,02,51,0.00
2007,08,15,02,52,0.00
2007,08,15,02,53,0.00
2007,08,15,02,54,0.00
2007,08,15,02,55,0.00
2007,08,15,02,56,0.00
2007,08,15,02,57,0.00
2007,08,15,02,58,0.00
2007,08,15,02,59,0.00
2007,08,15,03,00,0.00
2007,08,15,03,01,0.00
2007,08,15,03,02,0.00
2007,08,15,03,03,0.00
2007,08,15,03,04,0.00
2007,08,15,03,05,0.00
2007,08,15,03,06,0.00
2007,08,15,03,07,0.00
2007,08,15,03,08,0.00
2007,08,15,03,09,0.00
2007,08,15,03,10,0.00
2007,08,15,03,11,0.00
2007,08,15,03,12,0.00
2007,08,15,03,13,0.00
2007,08,15,03,14,0.00
2007,08,15,03,15,0.00
2007,08,15,03,16,0.00
2007,08,15,03,17,0.00
2007,08,15,03,18,0.00
2007,08,15,03,19,0.00
2007,08,15,03,20,0.00
2007,08,15,03,21,0.00
2007,08,15,03,22,0.00
2007,08,15,03,23,0.00
2007,08,15,03,24,0.00
2007,08,15,03,25,0.00
2007,08,15,03,26,0.00
2007,08,15,03,27,0.00
2007,08,15,03,28,0.00
2007,08,15,03,29,0.00
2007,08,15,03,30,0.00
2007,08,15,03,31,0.00
2007,08,15,03,32,0.00
2007,08,15,03,33,0.00
2007,08,15,03,34,0.00
2007,08,15,03,35,0.00
2007,08,15,03,36,0.00
2007,08,15,03,37,0.00
2007,08,15,03,38,0.00
2007,08,15,03,39,0.00
2007,08,15,03,40,0.00
2007,08,15,03,41,0.00
2007,08,15,03,42,0.00
2007,08,15,03,43,0.00
2007,08,15,03,44,0.00
2007,08,15,03,45,0.00
2007,08,15,03,46,0.00
2007,08,15,03,47,0.00
2007,08,15,03,48,0.00
2007,08,15,03,49,0.00
2007,08,15,03,50,0.00
2007,08,15,03,51,0.00
2007,08,15,03,52,0.00
2007,08,15,03,53,0.00
2007,08,15,03,54,0.00
2007,08,15,03,55,0.00
2007,08,15,03,56,0.00
2007,08,15,03,57,0.00
2007,08,15,03,58,0.00
2007,08,15,03,59,0.00
2007,08,15,04,00,0.00
2007,08,15,04,01,0.00
2007,08,15,04,02,0.00
2007,08,15,04,03,0.00
2007,08,15,04,04,0.00
2007,08,15,04,05,0.00
2007,08,15,04,06,0.00
2007,08,15,04,07,0.00
2007,08,15,04,08,0.00
2007,08,15,04,09,0.00
2007,08,15,04,10,0.00
2007,08,15,04,11,0.00
2007,08,15,04,12,0.00
2007,08,15,04,13,0.00
2007,08,15,04,14,0.00
2007,08,15,04,15,0.00
2007,08,15,04,16,0.00
2007,08,15,04,17,0.00
2007,08,15,04,18,0.00
2007,08,15,04,19,0.00
2007,08,15,04,20,0.00
2007,08,15,04,21,0.00
2007,08,15,04,22,0.00
2007,08,15,04,23,0.00
2007,08,15,04,24,0.00
2007,08,15,04,25,0.00
2007,08,15,04,26,0.00
2007,08,15,04,27,0.00
2007,08,15,04,28,0.00
2007,08,15,04,29,0.00
2007,08,15,04,30,0.00
2007,08,15,04,31,0.00
2007,08,15,04,32,0.00
2007,08,15,04,33,0.00
2007,08,15,04,34,0.00
2007,08,15,04,35,0.00
2007,08,15,04,36,0.00
2007,08,15,04,37,0.00
2007,08,15,04,38,0.00
2007,08,15,04,39,0.00
2007,08,15,04,40,0.00
2007,08,15,04,41,0.00
2007,08,15,04,42,0.00
2007,08,15,04,43,0.00
2007,08,15,04,44,0.00
2007,08,15,04,45,0.00
2007,08,15,04,46,0.00
2007,08,15,04,47,0.00
2007,08,15,04,48,0.00
2007,08,15,04,49,0.00
2007,08,15,04,50,0.00
2007,08,15,04,51,0.00
2007,08,15,04,52,0.00
2007,08,15,04,53,0.00
2007,08,15,04,54,0.00
2007,08,15,04,55,0.00
2007,08,15,04,56,0.00
2007,08,15,04,57,0.00
2007,08,15,04,58,0.00
2007,08,15,04,59,0.00
2007,08,15,05,00,0.00
2007,08,15,05,01,0.00
2007,08,15,05,02,0.20
2007,08,15,05,03,0.00
2007,08,15,05,04,0.00
2007,08,15,05,05,0.00
2007,08,15,05,06,0.00
2007,08,15,05,07,0.10
2007,08,15,05,08,0.00
2007,08,15,05,09,0.00
2007,08,15,05,10,0.00
2007,08,15,05,11,0.00
2007,08,15,05,12,0.00
2007,08,15,05,13,0.00
2007,08,15,05,14,0.00
2007,08,15,05,15,0.00
2007,08,15,05,16,0.00
2007,08,15,05,17,0.00
2007,08,15,05,18,0.00
2007,08,15,05,19,0.00
2007,08,15,05,20,0.00
2007,08,15,05,21,0.00
2007,08,15,05,22,0.00
2007,08,15,05,23,0.00
2007,08,15,05,24,0.00
2007,08,15,05,25,0.00
2007,08,15,05,26,0.00
2007,08,15,05,27,0.00
2007,08,15,05,28,0.00
2007,08,15,05,29,0.00
2007,08,15,05,30,0.00
2007,08,15,05,31,0.00
2007,08,15,05,32,0.00
2007,08,15,05,33,0.00
2007,08,15,05,34,0.00
2007,08,15,05,35,0.00
2007,08,15,05,36,0.00
2007,08,15,05,37,0.00
2007,08,15,05,38,0.00
2007,08,15,05,39,0.00
2007,08,15,05,40,0.00
2007,08,15,05,41,0.00
2007,08,15,05,42,0.00
2007,08,15,05,43,0.00
2007,08,15,05,44,0.00
2007,08,15,05,45,0.00
2007,08,15,05,46,0.00
2007,08,15,05,47,0.00
2007,08,15,05,48,0.00
2007,08,15,05,49,0.00
2007,08,15,05,50,0.00
2007,08,15,05,51,0.00
2007,08,15,05,52,0.00
2007,08,15,05,53,0.00
2007,08,15,05,54,0.00
2007,08,15,05,55,0.00
2007,08,15,05,56,0.00
2007,08,15,05,57,0.00
2007,08,15,05,58,0.00
2007,08,15,05,59,0.00
2007,08,15,06,00,0.00
2007,08,15,06,01,0.00
2007,08,15,06,02,0.00
2007,08,15,06,03,0.00
2007,08,15,06,04,0.00
2007,08,15,06,05,0.00
2007,08,15,06,06,0.00
2007,08,15,06,07,0.00
2007,08,15,06,08,0.00
2007,08,15,06,09,0.00
2007,08,15,06,10,0.00
2007,08,15,06,11,0.00
2007,08,15,06,12,0.00
2007,08,15,06,13,0.00
2007,08,15,06,14,0.00
2007,08,15,06,15,0.00
2007,08,15,06,16,0.00
2007,08,15,06,17,0.00
2007,08,15,06,18,0.00
2007,08,15,06,19,0.00
2007,08,15,06,20,0.00
2007,08,15,06,21,0.00
2007,08,15,06,22,0.00
2007,08,15,06,23,0.00
2007,08,15,06,24,0.00
2007,08,15,06,25,0.00
2007,08,15,06,26,0.00
2007,08,15,06,27,0.00
2007,08,15,06,28,0.00
2007,08,15,06,29,0.00
2007,08,15,06,30,0.00
2007,08,15,06,31,0.00
2007,08,15,06,32,0.00
2007,08,15,06,33,0.00
2007,08,15,06,34,0.00
2007,08,15,06,35,0.00
2007,08,15,06,36,0.00
2007,08,15,06,37,0.00
2007,08,15,06,38,0.00
2007,08,15,06,39,0.00
2007,08,15,06,40,0.00
2007,08,15,06,41,0.00
2007,08,15,06,42,0.00
2007,08,15,06,43,0.00
2007,08,15,06,44,0.00
2007,08,15,06,45,0.00
2007,08,15,06,46,0.00
2007,08,15,06,47,0.00
2007,08,15,06,48,0.00
2007,08,15,06,49,0.00
2007,08,15,06,50,0.00
2007,08,15,06,51,0.00
2007,08,15,06,52,0.00
2007,08,15,06,53,0.00
2007,08,15,06,54,0.00
2007,08,15,06,55,0.00
2007,08,15,06,56,0.00
2007,08,15,06,57,0.00
2007,08,15,06,58,0.00
2007,08,15,06,59,0.00
2007,08,15,07,00,0.00
2007,08,15,07,01,0.00
2007,08,15,07,02,0.00
2007,08,15,07,03,0.00
2007,08,15,07,04,0.00
2007,08,15,07,05,0.00
2007,08,15,07,06,0.00
2007,08,15,07,07,0.00
2007,08,15,07,08,0.00
2007,08,15,07,09,0.00
2007,08,15,07,10,0.00
2007,08,15,07,11,0.00
2007,08,15,07,12,0.00
2007,08,15,07,13,0.00
2007,08,15,07,14,0.00
2007,08,15,07,15,0.00
2007,08,15,07,16,0.00
2007,08,15,07,17,0.00
2007,08,15,07,18,0.00
2007,08,15,07,19,0.00
2007,08,15,07,20,0.00
2007,08,15,07,21,0.00
2007,08,15,07,22,0.00
2007,08,15,07,23,0.00
2007,08,15,07,24,0.00
2007,08,15,07,25,0.10
2007,08,15,07,26,0.90
2007,08,15,07,27,1.00
2007,08,15,07,28,0.00
2007,08,15,07,29,0.00
2007,08,15,07,30,0.00
2007,08,15,07,31,0.00
2007,08,15,07,32,0.00
2007,08,15,07,33,0.00
2007,08,15,07,34,0.90
2007,08,15,07,35,0.00
2007,08,15,07,36,0.00
2007,08,15,07,37,0.10
2007,08,15,07,38,0.10
2007,08,15,07,39,1.50
2007,08,15,07,40,0.00
2007,08,15,07,41,0.00
2007,08,15,07,42,0.30
2007,08,15,07,43,0.00
2007,08,15,07,44,0.30
2007,08,15,07,45,0.00
2007,08,15,07,46,0.00
2007,08,15,07,47,0.60
2007,08,15,07,48,0.00
2007,08,15,07,49,0.00
2007,08,15,07,50,3.40
2007,08,15,07,51,1.60
2007,08,15,07,52,2.60
2007,08,15,07,53,2.30
2007,08,15,07,54,2.30
2007,08,15,07,55,3.40
2007,08,15,07,56,0.70
2007,08,15,07,57,2.80
2007,08,15,07,58,4.10
2007,08,15,07,59,3.50
2007,08,15,08,00,1.30
2007,08,15,08,01,0.00
2007,08,15,08,02,0.10
2007,08,15,08,03,0.00
2007,08,15,08,04,0.00
2007,08,15,08,05,0.00
2007,08,15,08,06,0.00
2007,08,15,08,07,0.00
2007,08,15,08,08,0.00
2007,08,15,08,09,0.00
2007,08,15,08,10,0.00
2007,08,15,08,11,0.00
2007,08,15,08,12,0.00
2007,08,15,08,13,0.00
2007,08,15,08,14,0.00
2007,08,15,08,15,0.00
2007,08,15,08,16,0.00
2007,08,15,08,17,0.00
2007,08,15,08,18,0.00
2007,08,15,08,19,0.00
2007,08,15,08,20,0.00
2007,08,15,08,21,0.00
2007,08,15,08,22,0.00
2007,08,15,08,23,0.00
2007,08,15,08,24,0.00
2007,08,15,08,25,0.00
2007,08,15,08,26,0.00
2007,08,15,08,27,0.00
2007,08,15,08,28,0.00
2007,08,15,08,29,0.10
2007,08,15,08,30,0.00
2007,08,15,08,31,0.00
2007,08,15,08,32,0.10
2007,08,15,08,33,0.50
2007,08,15,08,34,0.80
2007,08,15,08,35,3.20
2007,08,15,08,36,2.70
2007,08,15,08,37,2.00
2007,08,15,08,38,1.90
2007,08,15,08,39,3.80
2007,08,15,08,40,2.40
2007,08,15,08,41,3.90
2007,08,15,08,42,4.20
2007,08,15,08,43,4.30
2007,08,15,08,44,5.60
2007,08,15,08,45,5.70
2007,08,15,08,46,5.40
2007,08,15,08,47,6.60
2007,08,15,08,48,4.40
2007,08,15,08,49,3.70
2007,08,15,08,50,2.10
2007,08,15,08,51,5.90
2007,08,15,08,52,5.10
2007,08,15,08,53,3.90
2007,08,15,08,54,5.20
2007,08,15,08,55,5.60
2007,08,15,08,56,4.60
2007,08,15,08,57,4.20
2007,08,15,08,58,5.60
2007,08,15,08,59,5.10
2007,08,15,09,00,5.00
2007,08,15,09,01,5.00
2007,08,15,09,02,1.90
2007,08,15,09,03,2.60
2007,08,15,09,04,3.90
2007,08,15,09,05,5.00
2007,08,15,09,06,3.60
2007,08,15,09,07,5.00
2007,08,15,09,08,4.50
2007,08,15,09,09,4.80
2007,08,15,09,10,3.50
2007,08,15,09,11,2.90
2007,08,15,09,12,4.80
2007,08,15,09,13,4.50
2007,08,15,09,14,4.80
2007,08,15,09,15,5.40
2007,08,15,09,16,3.60
2007,08,15,09,17,3.20
2007,08,15,09,18,3.90
2007,08,15,09,19,3.50
2007,08,15,09,20,4.40
2007,08,15,09,21,3.90
2007,08,15,09,22,5.80
2007,08,15,09,23,3.20
2007,08,15,09,24,3.30
2007,08,15,09,25,3.10
2007,08,15,09,26,3.80
2007,08,15,09,27,3.90
2007,08,15,09,28,2.50
2007,08,15,09,29,3.10
2007,08,15,09,30,5.40
2007,08,15,09,31,4.40
2007,08,15,09,32,3.90
2007,08,15,09,33,3.10
2007,08,15,09,34,3.10
2007,08,15,09,35,3.10
2007,08,15,09,36,2.50
2007,08,15,09,37,3.20
2007,08,15,09,38,2.90
2007,08,15,09,39,1.40
2007,08,15,09,40,0.00
2007,08,15,09,41,0.10
2007,08,15,09,42,0.10
2007,08,15,09,43,2.00
2007,08,15,09,44,2.10
2007,08,15,09,45,2.90
2007,08,15,09,46,3.10
2007,08,15,09,47,2.30
2007,08,15,09,48,6.40
2007,08,15,09,49,5.10
2007,08,15,09,50,5.40
2007,08,15,09,51,4.90
2007,08,15,09,52,6.30
2007,08,15,09,53,3.90
2007,08,15,09,54,4.80
2007,08,15,09,55,4.40
2007,08,15,09,56,5.70
2007,08,15,09,57,3.90
2007,08,15,09,58,3.70
2007,08,15,09,59,4.80
2007,08,15,10,00,5.00
2007,08,15,10,01,3.60
2007,08,15,10,02,3.90
2007,08,15,10,03,6.40
2007,08,15,10,04,2.40
2007,08,15,10,05,2.80
2007,08,15,10,06,4.30
2007,08,15,10,07,4.00
2007,08,15,10,08,4.50
2007,08,15,10,09,4.40
2007,08,15,10,10,5.40
2007,08,15,10,11,3.90
2007,08,15,10,12,5.10
2007,08,15,10,13,4.70
2007,08,15,10,14,4.30
2007,08,15,10,15,5.10
2007,08,15,10,16,6.40
2007,08,15,10,17,7.60
2007,08,15,10,18,5.50
2007,08,15,10,19,6.60
2007,08,15,10,20,6.30
2007,08,15,10,21,5.80
2007,08,15,10,22,8.50
2007,08,15,10,23,5.70
2007,08,15,10,24,5.10
2007,08,15,10,25,5.60
2007,08,15,10,26,5.70
2007,08,15,10,27,6.40
2007,08,15,10,28,6.80
2007,08,15,10,29,5.50
2007,08,15,10,30,6.90
2007,08,15,10,31,4.90
2007,08,15,10,32,6.60
2007,08,15,10,33,5.70
2007,08,15,10,34,3.60
2007,08,15,10,35,6.80
2007,08,15,10,36,5.20
2007,08,15,10,37,5.40
2007,08,15,10,38,2.70
2007,08,15,10,39,4.30
2007,08,15,10,40,4.80
2007,08,15,10,41,4.10
2007,08,15,10,42,3.80
2007,08,15,10,43,3.60
2007,08,15,10,44,4.10
2007,08,15,10,45,4.70
2007,08,15,10,46,5.40
2007,08,15,10,47,3.10
2007,08,15,10,48,1.80
2007,08,15,10,49,2.70
2007,08,15,10,50,4.40
2007,08,15,10,51,3.50
2007,08,15,10,52,6.10
2007,08,15,10,53,6.40
2007,08,15,10,54,5.40
2007,08,15,10,55,4.50
2007,08,15,10,56,4.10
2007,08,15,10,57,3.40
2007,08,15,10,58,4.00
2007,08,15,10,59,3.10
2007,08,15,11,00,6.10
2007,08,15,11,01,6.20
2007,08,15,11,02,3.40
2007,08,15,11,03,3.90
2007,08,15,11,04,5.60
2007,08,15,11,05,5.00
2007,08,15,11,06,2.60
2007,08,15,11,07,1.60
2007,08,15,11,08,4.60
2007,08,15,11,09,6.00
2007,08,15,11,10,4.70
2007,08,15,11,11,5.40
2007,08,15,11,12,3.80
2007,08,15,11,13,4.70
2007,08,15,11,14,4.40
2007,08,15,11,15,3.50
2007,08,15,11,16,3.40
2007,08,15,11,17,3.60
2007,08,15,11,18,5.00
2007,08,15,11,19,6.60
2007,08,15,11,20,6.60
2007,08,15,11,21,4.80
2007,08,15,11,22,4.60
2007,08,15,11,23,4.20
2007,08,15,11,24,6.00
2007,08,15,11,25,4.60
2007,08,15,11,26,5.80
2007,08,15,11,27,4.70
2007,08,15,11,28,4.50
2007,08,15,11,29,3.60
2007,08,15,11,30,3.50
2007,08,15,11,31,2.70
2007,08,15,11,32,4.40
2007,08,15,11,33,5.30
2007,08,15,11,34,4.00
2007,08,15,11,35,4.40
2007,08,15,11,36,7.50
2007,08,15,11,37,4.60
2007,08,15,11,38,5.40
2007,08,15,11,39,5.60
2007,08,15,11,40,5.60
2007,08,15,11,41,4.20
2007,08,15,11,42,5.60
2007,08,15,11,43,4.10
2007,08,15,11,44,3.00
2007,08,15,11,45,2.30
2007,08,15,11,46,4.60
2007,08,15,11,47,5.20
2007,08,15,11,48,4.70
2007,08,15,11,49,5.60
2007,08,15,11,50,4.60
2007,08,15,11,51,4.60
2007,08,15,11,52,5.70
2007,08,15,11,53,6.00
2007,08,15,11,54,5.60
2007,08,15,11,55,5.40
2007,08,15,11,56,6.30
2007,08,15,11,57,3.90
2007,08,15,11,58,5.50
2007,08,15,11,59,6.20
2007,08,15,12,00,6.70
2007,08,15,12,01,5.20
2007,08,15,12,02,6.10
2007,08,15,12,03,4.40
2007,08,15,12,04,6.00
2007,08,15,12,05,8.20
2007,08,15,12,06,5.80
2007,08,15,12,07,5.40
2007,08,15,12,08,4.70
2007,08,15,12,09,4.80
2007,08,15,12,10,3.10
2007,08,15,12,11,7.00
2007,08,15,12,12,3.80
2007,08,15,12,13,1.80
2007,08,15,12,14,1.80
2007,08,15,12,15,4.60
2007,08,15,12,16,0.80
2007,08,15,12,17,0.90
2007,08,15,12,18,4.50
2007,08,15,12,19,6.80
2007,08,15,12,20,4.40
2007,08,15,12,21,2.90
2007,08,15,12,22,3.20
2007,08,15,12,23,2.10
2007,08,15,12,24,3.00
2007,08,15,12,25,5.00
2007,08,15,12,26,3.50
2007,08,15,12,27,4.50
2007,08,15,12,28,4.10
2007,08,15,12,29,6.20
2007,08,15,12,30,7.30
2007,08,15,12,31,7.20
2007,08,15,12,32,5.00
2007,08,15,12,33,6.40
2007,08,15,12,34,3.90
2007,08,15,12,35,3.50
2007,08,15,12,36,7.30
2007,08,15,12,37,5.30
2007,08,15,12,38,7.70
2007,08,15,12,39,6.90
2007,08,15,12,40,6.60
2007,08,15,12,41,10.60
2007,08,15,12,42,7.90
2007,08,15,12,43,7.10
2007,08,15,12,44,4.80
2007,08,15,12,45,0.40
2007,08,15,12,46,2.80
2007,08,15,12,47,5.90
2007,08,15,12,48,4.40
2007,08,15,12,49,3.20
2007,08,15,12,50,9.10
2007,08,15,12,51,0.30
2007,08,15,12,52,3.40
2007,08,15,12,53,5.90
2007,08,15,12,54,3.50
2007,08,15,12,55,4.20
2007,08,15,12,56,4.70
2007,08,15,12,57,3.20
2007,08,15,12,58,2.60
2007,08,15,12,59,2.30
2007,08,15,13,00,3.40
2007,08,15,13,01,1.20
2007,08,15,13,02,6.60
2007,08,15,13,03,3.20
2007,08,15,13,04,2.90
2007,08,15,13,05,3.30
2007,08,15,13,06,5.90
2007,08,15,13,07,6.10
2007,08,15,13,08,4.60
2007,08,15,13,09,6.60
2007,08,15,13,10,5.80
2007,08,15,13,11,1.20
2007,08,15,13,12,4.60
2007,08,15,13,13,2.90
2007,08,15,13,14,2.80
2007,08,15,13,15,4.50
2007,08,15,13,16,1.50
2007,08,15,13,17,4.80
2007,08,15,13,18,4.40
2007,08,15,13,19,3.30
2007,08,15,13,20,5.60
2007,08,15,13,21,3.80
2007,08,15,13,22,5.90
2007,08,15,13,23,5.10
2007,08,15,13,24,4.30
2007,08,15,13,25,4.60
2007,08,15,13,26,4.60
2007,08,15,13,27,6.50
2007,08,15,13,28,4.70
2007,08,15,13,29,4.50
2007,08,15,13,30,6.90
2007,08,15,13,31,4.30
2007,08,15,13,32,3.80
2007,08,15,13,33,3.40
2007,08,15,13,34,5.70
2007,08,15,13,35,2.80
2007,08,15,13,36,1.60
2007,08,15,13,37,1.70
2007,08,15,13,38,3.80
2007,08,15,13,39,0.30
2007,08,15,13,40,2.00
2007,08,15,13,41,4.00
2007,08,15,13,42,6.30
2007,08,15,13,43,6.00
2007,08,15,13,44,5.60
2007,08,15,13,45,6.10
2007,08,15,13,46,6.60
2007,08,15,13,47,8.30
2007,08,15,13,48,3.70
2007,08,15,13,49,2.40
2007,08,15,13,50,5.90
2007,08,15,13,51,0.30
2007,08,15,13,52,1.80
2007,08,15,13,53,2.30
2007,08,15,13,54,2.60
2007,08,15,13,55,0.30
2007,08,15,13,56,3.00
2007,08,15,13,57,4.60
2007,08,15,13,58,3.50
2007,08,15,13,59,3.90
2007,08,15,14,00,5.30
2007,08,15,14,01,6.20
2007,08,15,14,02,6.70
2007,08,15,14,03,6.60
2007,08,15,14,04,3.90
2007,08,15,14,05,5.10
2007,08,15,14,06,7.50
2007,08,15,14,07,6.10
2007,08,15,14,08,3.50
2007,08,15,14,09,5.20
2007,08,15,14,10,5.30
2007,08,15,14,11,6.30
2007,08,15,14,12,4.70
2007,08,15,14,13,4.80
2007,08,15,14,14,2.00
2007,08,15,14,15,3.90
2007,08,15,14,16,6.00
2007,08,15,14,17,5.60
2007,08,15,14,18,5.00
2007,08,15,14,19,7.30
2007,08,15,14,20,4.30
2007,08,15,14,21,5.00
2007,08,15,14,22,5.00
2007,08,15,14,23,3.80
2007,08,15,14,24,5.80
2007,08,15,14,25,3.70
2007,08,15,14,26,5.50
2007,08,15,14,27,4.00
2007,08,15,14,28,2.30
2007,08,15,14,29,8.90
2007,08,15,14,30,7.60
2007,08,15,14,31,7.00
2007,08,15,14,32,9.00
2007,08,15,14,33,6.40
2007,08,15,14,34,6.60
2007,08,15,14,35,5.30
2007,08,15,14,36,7.70
2007,08,15,14,37,2.80
2007,08,15,14,38,3.90
2007,08,15,14,39,3.30
2007,08,15,14,40,6.30
2007,08,15,14,41,4.40
2007,08,15,14,42,7.20
2007,08,15,14,43,7.90
2007,08,15,14,44,7.90
2007,08,15,14,45,7.10
2007,08,15,14,46,6.50
2007,08,15,14,47,5.80
2007,08,15,14,48,6.40
2007,08,15,14,49,6.00
2007,08,15,14,50,4.20
2007,08,15,14,51,2.80
2007,08,15,14,52,4.80
2007,08,15,14,53,6.20
2007,08,15,14,54,8.20
2007,08,15,14,55,5.10
2007,08,15,14,56,4.70
2007,08,15,14,57,7.60
2007,08,15,14,58,5.60
2007,08,15,14,59,7.20
2007,08,15,15,00,8.00
2007,08,15,15,01,5.40
2007,08,15,15,02,8.20
2007,08,15,15,03,5.10
2007,08,15,15,04,7.70
2007,08,15,15,05,5.70
2007,08,15,15,06,6.60
2007,08,15,15,07,6.40
2007,08,15,15,08,6.30
2007,08,15,15,09,8.30
2007,08,15,15,10,9.20
2007,08,15,15,11,7.10
2007,08,15,15,12,5.00
2007,08,15,15,13,7.00
2007,08,15,15,14,7.10
2007,08,15,15,15,3.60
2007,08,15,15,16,8.80
2007,08,15,15,17,7.50
2007,08,15,15,18,8.80
2007,08,15,15,19,8.30
2007,08,15,15,20,6.30
2007,08,15,15,21,7.30
2007,08,15,15,22,7.50
2007,08,15,15,23,6.20
2007,08,15,15,24,6.00
2007,08,15,15,25,6.30
2007,08,15,15,26,3.30
2007,08,15,15,27,5.30
2007,08,15,15,28,5.00
2007,08,15,15,29,2.10
2007,08,15,15,30,4.50
2007,08,15,15,31,4.70
2007,08,15,15,32,2.00
2007,08,15,15,33,4.60
2007,08,15,15,34,5.20
2007,08,15,15,35,6.10
2007,08,15,15,36,6.30
2007,08,15,15,37,7.70
2007,08,15,15,38,5.60
2007,08,15,15,39,3.40
2007,08,15,15,40,2.10
2007,08,15,15,41,6.70
2007,08,15,15,42,4.50
2007,08,15,15,43,3.80
2007,08,15,15,44,5.00
2007,08,15,15,45,6.30
2007,08,15,15,46,6.10
2007,08,15,15,47,4.60
2007,08,15,15,48,5.40
2007,08,15,15,49,3.50
2007,08,15,15,50,3.20
2007,08,15,15,51,5.10
2007,08,15,15,52,4.40
2007,08,15,15,53,7.20
2007,08,15,15,54,5.70
2007,08,15,15,55,7.00
2007,08,15,15,56,6.60
2007,08,15,15,57,8.20
2007,08,15,15,58,9.00
2007,08,15,15,59,6.90
2007,08,15,16,00,7.80
2007,08,15,16,01,6.60
2007,08,15,16,02,8.30
2007,08,15,16,03,4.80
2007,08,15,16,04,3.60
2007,08,15,16,05,5.20
2007,08,15,16,06,6.70
2007,08,15,16,07,5.50
2007,08,15,16,08,6.20
2007,08,15,16,09,5.50
2007,08,15,16,10,6.20
2007,08,15,16,11,6.40
2007,08,15,16,12,9.20
2007,08,15,16,13,6.40
2007,08,15,16,14,6.70
2007,08,15,16,15,8.20
2007,08,15,16,16,8.30
2007,08,15,16,17,5.40
2007,08,15,16,18,6.30
2007,08,15,16,19,6.70
2007,08,15,16,20,4.10
2007,08,15,16,21,4.30
2007,08,15,16,22,5.40
2007,08,15,16,23,5.30
2007,08,15,16,24,2.80
2007,08,15,16,25,3.40
2007,08,15,16,26,4.00
2007,08,15,16,27,2.50
2007,08,15,16,28,2.20
2007,08,15,16,29,0.90
2007,08,15,16,30,4.00
2007,08,15,16,31,5.40
2007,08,15,16,32,3.00
2007,08,15,16,33,0.70
2007,08,15,16,34,2.90
2007,08,15,16,35,1.30
2007,08,15,16,36,3.60
2007,08,15,16,37,2.80
2007,08,15,16,38,1.10
2007,08,15,16,39,0.00
2007,08,15,16,40,0.00
2007,08,15,16,41,0.40
2007,08,15,16,42,3.30
2007,08,15,16,43,6.30
2007,08,15,16,44,2.40
2007,08,15,16,45,1.40
2007,08,15,16,46,2.50
2007,08,15,16,47,0.90
2007,08,15,16,48,5.00
2007,08,15,16,49,3.40
2007,08,15,16,50,4.20
2007,08,15,16,51,0.70
2007,08,15,16,52,3.20
2007,08,15,16,53,2.10
2007,08,15,16,54,0.70
2007,08,15,16,55,1.40
2007,08,15,16,56,0.80
2007,08,15,16,57,0.10
2007,08,15,16,58,1.20
2007,08,15,16,59,6.20
2007,08,15,17,00,4.70
2007,08,15,17,01,0.80
2007,08,15,17,02,4.30
2007,08,15,17,03,3.10
2007,08,15,17,04,3.80
2007,08,15,17,05,6.30
2007,08,15,17,06,6.30
2007,08,15,17,07,4.20
2007,08,15,17,08,0.10
2007,08,15,17,09,2.40
2007,08,15,17,10,2.10
2007,08,15,17,11,1.20
2007,08,15,17,12,1.00
2007,08,15,17,13,1.30
2007,08,15,17,14,0.30
2007,08,15,17,15,0.30
2007,08,15,17,16,0.90
2007,08,15,17,17,2.80
2007,08,15,17,18,6.10
2007,08,15,17,19,4.40
2007,08,15,17,20,3.60
2007,08,15,17,21,4.20
2007,08,15,17,22,4.60
2007,08,15,17,23,3.50
2007,08,15,17,24,4.10
2007,08,15,17,25,4.10
2007,08,15,17,26,2.40
2007,08,15,17,27,2.00
2007,08,15,17,28,2.90
2007,08,15,17,29,2.30
2007,08,15,17,30,4.10
2007,08,15,17,31,1.30
2007,08,15,17,32,2.60
2007,08,15,17,33,1.50
2007,08,15,17,34,0.60
2007,08,15,17,35,1.50
2007,08,15,17,36,1.90
2007,08,15,17,37,0.10
2007,08,15,17,38,2.90
2007,08,15,17,39,2.70
2007,08,15,17,40,2.00
2007,08,15,17,41,1.50
2007,08,15,17,42,2.50
2007,08,15,17,43,5.10
2007,08,15,17,44,6.00
2007,08,15,17,45,5.40
2007,08,15,17,46,3.90
2007,08,15,17,47,1.30
2007,08,15,17,48,1.70
2007,08,15,17,49,2.10
2007,08,15,17,50,3.60
2007,08,15,17,51,5.10
2007,08,15,17,52,1.80
2007,08,15,17,53,2.50
2007,08,15,17,54,5.00
2007,08,15,17,55,3.10
2007,08,15,17,56,1.00
2007,08,15,17,57,2.30
2007,08,15,17,58,2.70
2007,08,15,17,59,6.30
2007,08,15,18,00,1.50
2007,08,15,18,01,2.50
2007,08,15,18,02,4.80
2007,08,15,18,03,5.00
2007,08,15,18,04,3.10
2007,08,15,18,05,2.50
2007,08,15,18,06,2.30